Flag for Canada Weather past 2 weeks in Lloydminster, Alberta, Canada

Now
64 °F

Overcast.


Feels Like: 64 °F
Forecast: 54 / 72 °F
Wind: 17 mph from Southeast

Location: Lloydminister

Current Time: Jul 24, 2014 at 5:43:57 AM

Latest Report: Jul 24, 2014 at 5:00 AM


Visibility: 9 mi

Pressure: 29.79 "Hg

Humidity: 88%

Dew point: 61 °F

Location of LloydminsterLocation

Historic Weather in Lloydminster — Graph

°F

Lloydminster temperature yesterday

Maximum temperature yesterday: 73 °F (at 11:00 AM)
Minimum temperature yesterday: 61 °F (at 6:00 AM)
Average temperature yesterday: 67 °F

Past Weeks' High & Low Weather Summary

 TemperatureHumidityPressure
High81 °F (Jul 9, 2:00 PM)100% (Jul 17, 6:00 AM)30.38 "Hg (Jul 17, 6:00 AM)
Low48 °F (Jul 13, 2:00 AM)31% (Jul 13, 4:00 PM)29.55 "Hg (Jul 19, 10:00 AM)
Average63 °F72%29.95 "Hg
* Reported Jul 9 4:00 AM — Jul 24 4:00 AM, Lloydminster, Weather by CustomWeather, © 2014

Note: Actual official high and low records may vary slightly from our data, if they occured in-between our weather recording intervals... More about our weather records

Advertising

Lloydminster weather history for previous 24 hours

 ConditionsComfort  
Time TempWeatherWind HumidityBarometerVisibility
4:00 AM
Jul 24
63 °FMostly cloudy.12 mph94%29.78 "Hg9 mi
3:00 AM63 °FClear.12 mph94%29.80 "Hg9 mi
2:00 AM63 °FPassing clouds.12 mph94%29.83 "Hg9 mi
1:00 AM64 °FPassing clouds.10 mph88%29.85 "Hg9 mi
12:00 AM64 °FPassing clouds.14 mph88%29.87 "Hg9 mi
11:00 PM
Jul 23
64 °FPassing clouds.15 mph88%29.89 "Hg9 mi
10:00 PM66 °FPartly sunny.15 mph88%29.90 "Hg9 mi
9:00 PM68 °FBroken clouds.15 mph88%29.91 "Hg15 mi
8:00 PM68 °FPartly sunny.7 mph88%29.96 "Hg15 mi
7:00 PM64 °FThunderstorms. Partly sunny.15 mph88%29.98 "Hg8 mi
6:00 PM68 °FThunderstorms. Partly sunny.5 mph94%30.00 "Hg4 mi
5:00 PM68 °FSprinkles. Mostly cloudy.2 mph88%30.03 "Hg8 mi
4:00 PM70 °FSprinkles. Mostly cloudy.6 mph83%30.04 "Hg15 mi
3:50 PM72 °FSprinkles. Mostly cloudy.7 mph78%30.04 "Hg15 mi
3:00 PM72 °FMostly cloudy.10 mph78%30.04 "Hg15 mi
2:00 PM73 °FThunderstorms. Cloudy.12 mph74%30.04 "Hg15 mi
1:00 PM73 °FPartly sunny.16 mph69%30.05 "Hg15 mi
12:00 PM73 °FBroken clouds.22 mph61%30.05 "Hg15 mi
11:00 AM73 °FPartly sunny.17 mph65%30.07 "Hg15 mi
10:00 AM68 °FScattered clouds.18 mph73%30.09 "Hg15 mi
9:00 AM66 °FPartly sunny.15 mph78%30.11 "Hg15 mi
8:00 AM64 °FPartly sunny.16 mph78%30.11 "Hg15 mi
7:00 AM61 °FScattered clouds.13 mph83%30.12 "Hg15 mi
6:00 AM61 °FOvercast.13 mph83%30.12 "Hg9 mi
5:00 AM63 °FOvercast.12 mph77%30.14 "Hg9 mi
Weather by CustomWeather, © 2014

See weather overviewHow to use our weather pages